greek

ΠΛΗΡΟΦΟΡΙΕΣ ΚΑΙΡΟΥ

english


LGTT 121800Z 00000KT CAVOK 30/10 Q1013 RMK FEW080 SCT180
TAF LGTT 120700Z 1209/1218 04008KT CAVOK BECMG 1209/1211 23012KT

 Print LGTT local weather
 EMY AVIATION
 EMY LGTT
 Forecast LGTT
 EMY LGMG
 EMY LGEL
 EMY LGTG
 EMY LGAV
 EMY LGAT
 Latest METAR Reports (OGIMET)
 Latest TAF Reports (OGIMET)
 Greece Forecast
 www.windy.com
 www.meteoblue.com
 www.meteo.gr
 SAT 24h
 UK Met Office
 www.kifissiameteo.gr
 forecast.uoa.gr
 www.ntua.gr/weather/
 https://www.autorouter.aero/gramet
 https://aviationweather-cprk.ncep.noaa.gov/sigmet/

Στο τηλέφωνο 210-3533689 μπορείτε να πάρετε πληροφορίες για την πτήση σας σε οποιοδήποτε σημείο της χώρας.